Location: Catenanuova
(37.5690°N, 14.6870°E)
Time: 11:21:35
(UTC+02:00)

Envisat - Visible Passes

Search period start: 21 May 2024 00:00
Search period end: 31 May 2024 00:00
Orbit: 762 x 764 km, 98.3° (Epoch: 20 May)

Date Brightness Start Highest point End Pass type
(mag) Time Alt. Az. Time Alt. Az. Time Alt. Az.
21 May 5.2 03:13:37 10° NE 03:17:07 18° E 03:20:34 10° SE visible
21 May 3.4 04:51:26 10° N 04:56:16 45° WNW 05:01:04 10° SW visible
22 May 3.1 04:13:55 10° NNE 04:19:00 77° ESE 04:23:33 13° S visible
23 May 4.5 03:37:01 10° NNE 03:41:33 32° E 03:45:46 11° SSE visible
23 May 4.1 05:16:09 10° NNW 05:20:21 27° WNW 05:24:33 10° SW visible
24 May 5.5 03:01:25 10° ENE 03:03:53 14° E 03:06:21 10° ESE visible
24 May 3.1 04:38:13 10° N 04:43:13 61° WNW 04:48:10 10° SSW visible
25 May 3.5 04:00:54 10° NNE 04:05:54 57° E 04:10:23 13° S visible
26 May 4.9 03:24:18 10° NE 03:28:22 24° E 03:32:25 10° SSE visible
26 May 3.8 05:02:46 10° N 05:07:21 35° WNW 05:11:55 10° SW visible
27 May 3.0 04:25:04 10° N 04:30:09 82° WNW 04:35:00 11° SSW visible
28 May 4.0 03:47:57 10° NNE 03:52:45 42° E 03:57:12 12° SSE visible
29 May 5.3 03:11:45 10° NE 03:15:10 18° E 03:18:33 10° SE visible
29 May 3.4 04:49:29 10° N 04:54:20 47° WNW 04:59:10 10° SW visible
30 May 3.1 04:11:58 10° NNE 04:17:03 75° ESE 04:21:48 12° S visible
